Location: Bay Shore Mobile Home Park
(38.5762°N, 75.0841°W)
Time: 19:49:18
(UTC+00:00)

DELTA 2 R/B (1) - Pass Details

Date: 15 November 2025
Orbit: 786 x 800 km, 39.6° (Epoch: 08 December)

Event Time Altitude Azimuth Distance (km) Brightness Sun altitude
Rises 23:21:13 0° 220° (SW) 3,269 7.5 -18.5°
Reaches altitude 10° 23:23:55 10° 210° (SSW) 2,340 6.5 -19.0°
Maximum altitude 23:28:45 32° 149° (SSE) 1,331 4.5 -19.9°
Enters shadow 23:29:54 29° 126° (SE) 1,407 4.5 -20.1°
